Flag for U.S.A. Weather past 2 weeks in Norfolk, Virginia, U.S.A.

Now
37 °F

Passing clouds.


Feels Like: 32 °F
Forecast: 31 / 46 °F
Wind: 7 mph from North

Location: Norfolk Naval Air Station

Current Time: Dec 21, 2014 at 1:26:58 AM

Latest Report: Dec 21, 2014 at 12:59 AM


Visibility: 10 mi

Pressure: 30.30 "Hg

Humidity: 73%

Dew point: 29 °F

Location of NorfolkLocation

Historic Weather in Norfolk — Graph

°F

Norfolk temperature yesterday

Maximum temperature yesterday: 43 °F (at 10:59 AM)
Minimum temperature yesterday: 36 °F (at 9:59 PM)
Average temperature yesterday: 40 °F

Past Weeks' High & Low Weather Summary

 TemperatureHumidityPressure
High65 °F (Dec 16, 12:59 PM)90% (Dec 6, 6:59 PM)30.46 "Hg (Dec 6, 6:59 PM)
Low36 °F (Dec 12, 11:59 PM)29% (Dec 12, 1:59 PM)29.81 "Hg (Dec 10, 1:59 PM)
Average46 °F64%30.10 "Hg
* Reported Dec 5 11:59 PM — Dec 20 11:59 PM, Norfolk, Weather by CustomWeather, © 2014

Note: Actual official high and low records may vary slightly from our data, if they occured in-between our weather recording intervals... More about our weather records

Advertising

Norfolk weather history for previous 24 hours

 ConditionsComfort  
Time TempWeatherWind HumidityBarometerVisibility
11:59 PM
Dec 20
37 °FPassing clouds.No wind70%30.30 "Hg9 mi
10:59 PM36 °FPassing clouds.No wind75%30.31 "Hg8 mi
9:59 PM36 °FPassing clouds.No wind75%30.31 "Hg9 mi
8:59 PM37 °FPassing clouds.No wind73%30.31 "Hg9 mi
7:59 PM37 °FPassing clouds.No wind70%30.30 "Hg9 mi
6:59 PM38 °FPassing clouds.No wind70%30.31 "Hg10 mi
5:59 PM39 °FPartly cloudy.No wind67%30.29 "Hg10 mi
4:59 PM41 °FMostly cloudy.3 mph62%30.28 "Hg10 mi
3:59 PM42 °FMostly cloudy.No wind62%30.28 "Hg10 mi
2:59 PM43 °FPartly sunny.5 mph60%30.27 "Hg10 mi
1:59 PM42 °FMostly cloudy.No wind60%30.29 "Hg10 mi
12:59 PM42 °FMostly cloudy.3 mph60%30.28 "Hg10 mi
11:59 AM42 °FCloudy.6 mph60%30.30 "Hg10 mi
10:59 AM43 °FCloudy.8 mph62%30.32 "Hg10 mi
9:59 AM41 °FCloudy.10 mph65%30.33 "Hg10 mi
8:59 AM40 °FCloudy.9 mph65%30.33 "Hg10 mi
7:59 AM39 °FCloudy.7 mph67%30.30 "Hg10 mi
6:59 AM39 °FOvercast.10 mph67%30.30 "Hg10 mi
5:59 AM39 °FPassing clouds.8 mph67%30.28 "Hg10 mi
4:59 AM39 °FPassing clouds.9 mph65%30.26 "Hg10 mi
3:59 AM39 °FPassing clouds.7 mph65%30.27 "Hg10 mi
2:59 AM39 °FPassing clouds.8 mph65%30.27 "Hg10 mi
1:59 AM40 °FPassing clouds.10 mph60%30.25 "Hg10 mi
Weather by CustomWeather, © 2014

See weather overviewHow to use our weather pages